User: anonymous   Login
Location: ??? ???
(33.4974°N, 35.4618°E)
Time: 01:27:25
(UTC+00:00)
Language:

ARGOS - Orbit

View from above orbital plane
View from above orbital plane
View from above satellite
View from above satellite

Ground track
Ground track

The orbit data is extracted from the following two-line orbital elements,

1 25634U 99008A   21020.79501784 -.00000033  00000-0  40599-5 0  9991
2 25634  98.4369  55.6121 0010378  14.1944 345.9523 14.19386640134318
Epoch (UTC): 20 January 2021 19:04:49
Eccentricity: 0.0010378
inclination: 98.4369°
perigee height: 820 km
apogee height: 835 km
right ascension of ascending node: 55.6121°
argument of perigee: 14.1944°
revolutions per day: 14.19386640
mean anomaly at epoch: 345.9523°
orbit number at epoch: 13431

The dashed part of the orbit path shows where the satellite is in the earth's shadow,  

DLR